{"data":{"norad_id":65957,"intl_designator":"2025-228L","name":"KUIPER-00128","alt_names":[],"object_type":"PAYLOAD","status":"ACTIVE","operator":null,"country":"US","launch_date":"2025-10-14","launch_site_code":"AFETR","launch_vehicle":null,"mission":null,"orbit_class":"UNKNOWN","rcs_meters":null,"size_class":null,"mass_kg":null,"dimensions":null,"purposes":[],"wikipedia_slug":null,"has_3d_model":false,"image_url":null,"decayed_at":null,"tle_current":{"epoch":"2026-05-25T00:17:31.189056Z","epoch_age_seconds":67923,"freshness":"FRESH","line1":"1 65957U 25228L   26145.01216654  .00001447  00000+0  21873-3 0  9993","line2":"2 65957  51.9008  15.6253 0000908 105.5812 254.5250 14.79937314 34635","mean_motion":14.79937314,"eccentricity":9.08e-5,"inclination_deg":51.9008,"raan_deg":15.6253,"arg_perigee_deg":105.5812,"mean_anomaly_deg":254.525,"bstar":0.00021873,"rev_number":3463,"period_min":97.301418538326,"perigee_km":628.88571554089,"apogee_km":630.15830641728,"semimajor_km":7007.6590109791,"source":"CELESTRAK","updated_at":"2026-05-25T13:38:05.847314Z"}}}